Fecha, hora, temperatura, viento dirección y velocidad, humedad y presión.

  • 11-04-2019 21:00:00 | 10.90°C | Noroeste |10.00 km/h | 88.00% | 1012.50 hPa
  • 11-04-2019 20:00:00 | 11.00°C | Noroeste |9.00 km/h | 86.00% | 1012.30 hPa
  • 11-04-2019 19:00:00 | 11.60°C | Noroeste |12.00 km/h | 85.00% | 1012.20 hPa
  • 11-04-2019 18:00:00 | 11.30°C | Noroeste |12.00 km/h | 87.00% | 1012.00 hPa
  • 11-04-2019 17:00:00 | 11.50°C | Noroeste |11.00 km/h | 91.00% | 1011.60 hPa
  • 11-04-2019 16:00:00 | 10.90°C | Noroeste |10.00 km/h | 96.00% | 1011.70 hPa
  • 11-04-2019 15:00:00 | 9.80°C | Noroeste |15.00 km/h | 96.00% | 1011.60 hPa
  • 11-04-2019 14:00:00 | 10.70°C | Noroeste |19.00 km/h | 94.00% | 1011.50 hPa
  • 11-04-2019 13:00:00 | 10.40°C | Noroeste |18.00 km/h | 95.00% | 1011.70 hPa
  • 11-04-2019 12:00:00 | 9.90°C | Noroeste |21.00 km/h | 95.00% | 1011.50 hPa
  • 11-04-2019 11:00:00 | 10.00°C | Noroeste |17.00 km/h | 95.00% | 1011.30 hPa
  • 11-04-2019 10:00:00 | 10.40°C | Oeste |13.00 km/h | 91.00% | 1010.90 hPa
  • 11-04-2019 09:00:00 | 10.20°C | Oeste |13.00 km/h | 93.00% | 1010.70 hPa
  • 11-04-2019 08:00:00 | 10.10°C | Oeste |10.00 km/h | 93.00% | 1010.40 hPa
  • 11-04-2019 07:00:00 | 10.00°C | Noroeste |9.00 km/h | 94.00% | 1010.10 hPa
  • 11-04-2019 06:00:00 | 10.10°C | Noroeste |9.00 km/h | 93.00% | 1010.30 hPa
  • 11-04-2019 05:00:00 | 10.00°C | Oeste |8.00 km/h | 93.00% | 1010.30 hPa
  • 11-04-2019 04:00:00 | 10.30°C | Oeste |8.00 km/h | 93.00% | 1010.20 hPa
  • 11-04-2019 03:00:00 | 10.70°C | Noroeste |13.00 km/h | 92.00% | 1010.20 hPa
  • 11-04-2019 02:00:00 | 10.80°C | Noroeste |11.00 km/h | 93.00% | 1010.40 hPa
  • 11-04-2019 01:00:00 | 10.90°C | Noroeste |14.00 km/h | 93.00% | 1010.40 hPa
  • 11-04-2019 00:00:00 | 11.00°C | Noroeste |18.00 km/h | 91.00% | 1010.20 hPa
  • 10-04-2019 23:00:00 | 10.90°C | Noroeste |13.00 km/h | 91.00% | 1010.20 hPa
  • 10-04-2019 22:00:00 | 10.70°C | Noroeste |14.00 km/h | 93.00% | 1009.90 hPa
    • diseño web asturias Información sobre el estado de las mareas, altura de la marejada, temperatura del agua y otros datos de Gijón en Asturias.

      Surf Gijón